| time (UTC) | temp C | wind direction | speed KPH | gust KPH | rain 1hr cm | rain 24hr cm | rain mn cm | humidity % | barometer mb |
| 20260831151217 | 18 | 46 | 8.0 | 24.1 | 0.00 | 0.79 | 0.79 | 62 | 1020.8 |
| 20260831150713 | 19 | 40 | 4.8 | 24.1 | 0.00 | 0.79 | 0.79 | 60 | 1020.9 |
| 20260831145717 | 19 | 334 | 8.0 | 30.6 | 0.00 | 0.79 | 0.79 | 61 | 1020.7 |
| 20260831145216 | 19 | 14 | 9.7 | 25.7 | 0.00 | 0.79 | 0.79 | 61 | 1020.6 |
| 20260831144219 | 19 | 84 | 6.4 | 25.7 | 0.00 | 0.79 | 0.79 | 60 | 1020.6 |
| 20260831143741 | 19 | 267 | 8.0 | 25.7 | 0.00 | 0.79 | 0.79 | 60 | 1020.6 |
| 20260831143226 | 19 | 24 | 6.4 | 32.2 | 0.00 | 0.79 | 0.79 | 61 | 1020.5 |
| 20260831142708 | 19 | 325 | 6.4 | 32.2 | 0.00 | 0.79 | 0.79 | 59 | 1020.7 |
| 20260831141728 | 19 | 355 | 14.5 | 38.6 | 0.00 | 0.79 | 0.79 | 59 | 1020.6 |
| 20260831141213 | 19 | 345 | 12.9 | 25.7 | 0.00 | 0.79 | 0.79 | 59 | 1020.6 |
| 20260831140713 | 19 | 345 | 8.0 | 25.7 | 0.00 | 0.79 | 0.79 | 59 | 1020.5 |
| 20260831140227 | 19 | 19 | 4.8 | 29.0 | 0.00 | 0.79 | 0.79 | 59 | 1020.6 |
| 20260831135222 | 19 | 239 | 9.7 | 41.8 | 0.00 | 0.79 | 0.79 | 58 | 1020.5 |
| 20260831134717 | 20 | 16 | 6.4 | 41.8 | 0.00 | 0.79 | 0.79 | 57 | 1020.6 |
| 20260831134226 | 20 | 71 | 9.7 | 32.2 | 0.00 | 0.79 | 0.79 | 57 | 1020.4 |
| 20260831133719 | 19 | 48 | 9.7 | 32.2 | 0.00 | 0.79 | 0.79 | 57 | 1020.6 |
| 20260831133217 | 20 | 5 | 11.3 | 25.7 | 0.00 | 0.79 | 0.79 | 57 | 1020.6 |
| 20260831132718 | 20 | 22 | 9.7 | 25.7 | 0.00 | 0.79 | 0.79 | 55 | 1020.7 |
| 20260831132233 | 20 | 13 | 6.4 | 22.5 | 0.00 | 0.79 | 0.79 | 56 | 1020.6 |
| 20260831131715 | 20 | 34 | 4.8 | 22.5 | 0.00 | 0.79 | 0.79 | 56 | 1020.6 |
| 20260831131208 | 20 | 327 | 4.8 | 17.7 | 0.00 | 0.79 | 0.79 | 55 | 1020.5 |
| 20260831130719 | 20 | 217 | 4.8 | 17.7 | 0.00 | 0.79 | 0.79 | 57 | 1020.5 |
| 20260831130217 | 20 | 143 | 6.4 | 20.9 | 0.00 | 0.79 | 0.79 | 57 | 1020.4 |
| 20260831125726 | 20 | 152 | 6.4 | 20.9 | 0.00 | 0.79 | 0.79 | 59 | 1020.4 |
| 20260831125228 | 20 | 163 | 6.4 | 24.1 | 0.00 | 0.79 | 0.79 | 57 | 1020.5 |
| 20260831124717 | 19 | 118 | 8.0 | 24.1 | 0.00 | 0.79 | 0.79 | 60 | 1020.3 |
| 20260831124218 | 20 | 204 | 11.3 | 25.7 | 0.00 | 0.79 | 0.79 | 56 | 1020.6 |
| 20260831123228 | 20 | 153 | 9.7 | 25.7 | 0.00 | 0.79 | 0.79 | 58 | 1020.5 |
| 20260831122716 | 19 | 198 | 12.9 | 25.7 | 0.00 | 0.79 | 0.79 | 57 | 1020.5 |
| 20260831121747 | 20 | 178 | 3.2 | 24.1 | 0.00 | 0.79 | 0.79 | 58 | 1020.5 |
| 20260831121220 | 18 | 111 | 6.4 | 30.6 | 0.00 | 0.79 | 0.79 | 62 | 1020.6 |
| 20260831120713 | 18 | 336 | 9.7 | 30.6 | 0.00 | 0.79 | 0.79 | 64 | 1020.7 |
| 20260831120213 | 18 | 65 | 14.5 | 32.2 | 0.00 | 0.79 | 0.79 | 65 | 1020.7 |
| 20260831115712 | 18 | 328 | 17.7 | 32.2 | 0.00 | 0.79 | 0.79 | 64 | 1020.7 |
| 20260831114722 | 18 | 5 | 16.1 | 32.2 | 0.00 | 0.79 | 0.79 | 63 | 1020.7 |
| 20260831112717 | 18 | 304 | 11.3 | 30.6 | 0.00 | 0.79 | 0.79 | 63 | 1021.0 |
| 20260831111222 | 18 | 0 | 11.3 | 35.4 | 0.00 | 0.79 | 0.79 | 66 | 1020.8 |
| 20260831110230 | 18 | 346 | 16.1 | 30.6 | 0.00 | 0.79 | 0.79 | 67 | 1020.6 |
| 20260831105224 | 18 | 15 | 8.0 | 22.5 | 0.00 | 0.79 | 0.79 | 64 | 1020.6 |
| 20260831104720 | 18 | 355 | 3.2 | 22.5 | 0.00 | 0.79 | 0.79 | 65 | 1020.5 |
| 20260831104229 | 18 | 217 | 3.2 | 20.9 | 0.00 | 0.79 | 0.79 | 65 | 1020.6 |
| 20260831103220 | 18 | 52 | 4.8 | 30.6 | 0.00 | 0.79 | 0.79 | 63 | 1020.6 |
| 20260831102727 | 18 | 113 | 6.4 | 30.6 | 0.00 | 0.79 | 0.79 | 64 | 1020.6 |
| 20260831101711 | 18 | 75 | 9.7 | 35.4 | 0.00 | 0.79 | 0.79 | 62 | 1020.5 |
| 20260831100722 | 18 | 326 | 4.8 | 35.4 | 0.00 | 0.79 | 0.79 | 62 | 1020.7 |
| 20260831100211 | 18 | 119 | 8.0 | 25.7 | 0.00 | 0.79 | 0.79 | 64 | 1020.4 |
| 20260831095719 | 18 | 108 | 9.7 | 25.7 | 0.00 | 0.79 | 0.79 | 64 | 1020.5 |
| 20260831095232 | 18 | 165 | 8.0 | 17.7 | 0.00 | 0.79 | 0.79 | 67 | 1020.4 |
| 20260831094725 | 18 | 132 | 6.4 | 17.7 | 0.00 | 0.79 | 0.79 | 68 | 1020.5 |
| 20260831094228 | 17 | 171 | 6.4 | 17.7 | 0.00 | 0.79 | 0.79 | 70 | 1020.5 |
| 20260831093709 | 17 | 107 | 8.0 | 17.7 | 0.00 | 0.79 | 0.79 | 72 | 1020.6 |
| 20260831092213 | 16 | 163 | 4.8 | 19.3 | 0.00 | 0.79 | 0.79 | 72 | 1020.6 |
| 20260831091726 | 16 | 167 | 6.4 | 19.3 | 0.00 | 0.79 | 0.79 | 72 | 1020.6 |
| 20260831090717 | 16 | 142 | 6.4 | 19.3 | 0.00 | 0.79 | 0.79 | 73 | 1020.5 |
| 20260831090226 | 16 | 197 | 6.4 | 16.1 | 0.00 | 0.79 | 0.79 | 74 | 1020.5 |
| 20260831085726 | 16 | 182 | 8.0 | 16.1 | 0.00 | 0.79 | 0.79 | 73 | 1020.5 |
| 20260831084225 | 16 | 140 | 3.2 | 17.7 | 0.00 | 0.79 | 0.79 | 75 | 1020.3 |
| 20260831083725 | 16 | 100 | 3.2 | 17.7 | 0.00 | 0.79 | 0.79 | 74 | 1020.3 |
| 20260831083216 | 16 | 122 | 3.2 | 14.5 | 0.00 | 0.79 | 0.79 | 75 | 1020.1 |
| 20260831082729 | 15 | 152 | 3.2 | 14.5 | 0.00 | 0.79 | 0.79 | 76 | 1020.1 |
| 20260831082220 | 15 | 165 | 6.4 | 14.5 | 0.00 | 0.79 | 0.79 | 77 | 1020.1 |
| 20260831081231 | 15 | 171 | 6.4 | 16.1 | 0.00 | 0.79 | 0.79 | 77 | 1020.1 |
| 20260831080720 | 15 | 119 | 4.8 | 16.1 | 0.00 | 0.79 | 0.79 | 79 | 1020.1 |
| 20260831080217 | 15 | 65 | 3.2 | 12.9 | 0.00 | 0.79 | 0.79 | 78 | 1020.1 |
| 20260831075716 | 15 | 152 | 3.2 | 12.9 | 0.00 | 0.79 | 0.79 | 79 | 1020.0 |
| 20260831075210 | 15 | 157 | 4.8 | 16.1 | 0.00 | 0.79 | 0.79 | 79 | 1020.0 |
| 20260831074727 | 15 | 182 | 4.8 | 16.1 | 0.00 | 0.79 | 0.79 | 78 | 1020.0 |
| 20260831074208 | 15 | 190 | 4.8 | 19.3 | 0.00 | 0.79 | 0.79 | 78 | 1019.9 |
| 20260831073708 | 15 | 136 | 6.4 | 19.3 | 0.00 | 0.79 | 0.79 | 78 | 1019.9 |
| 20260831072729 | 14 | 174 | 6.4 | 19.3 | 0.00 | 0.79 | 0.79 | 79 | 1019.8 |
| 20260831071725 | 14 | 157 | 6.4 | 14.5 | 0.00 | 0.79 | 0.79 | 79 | 1019.8 |
| 20260831071218 | 14 | 171 | 6.4 | 17.7 | 0.00 | 0.79 | 0.79 | 80 | 1019.7 |
| 20260831070715 | 14 | 188 | 6.4 | 17.7 | 0.00 | 0.79 | 0.79 | 81 | 1019.7 |
| 20260831065721 | 14 | 139 | 6.4 | 17.7 | 0.00 | 0.79 | 0.79 | 81 | 1019.7 |
| 20260831065212 | 14 | 180 | 4.8 | 14.5 | 0.00 | 0.79 | 0.79 | 81 | 1019.7 |
| 20260831064224 | 14 | 169 | 3.2 | 12.9 | 0.00 | 0.79 | 0.79 | 80 | 1019.6 |
| 20260831063720 | 14 | 141 | 3.2 | 12.9 | 0.00 | 0.79 | 0.79 | 79 | 1019.6 |
| 20260831063226 | 14 | 124 | 3.2 | 11.3 | 0.00 | 0.79 | 0.79 | 79 | 1019.5 |
| 20260831062720 | 14 | 174 | 1.6 | 11.3 | 0.00 | 0.79 | 0.79 | 78 | 1019.5 |
| 20260831062235 | 14 | 156 | 1.6 | 12.9 | 0.00 | 0.79 | 0.79 | 79 | 1019.5 |
| 20260831061706 | 14 | 134 | 3.2 | 12.9 | 0.00 | 0.79 | 0.79 | 79 | 1019.5 |
| 20260831061220 | 14 | 186 | 3.2 | 11.3 | 0.00 | 0.79 | 0.79 | 77 | 1019.4 |
| 20260831060725 | 14 | 127 | 3.2 | 11.3 | 0.00 | 0.79 | 0.79 | 79 | 1019.3 |
| 20260831060226 | 14 | 117 | 1.6 | 20.9 | 0.00 | 0.79 | 0.79 | 78 | 1019.4 |
| 20260831055727 | 14 | 157 | 1.6 | 20.9 | 0.00 | 0.79 | 0.79 | 78 | 1019.5 |
| 20260831055215 | 14 | 152 | 3.2 | 20.9 | 0.00 | 0.79 | 0.79 | 79 | 1019.3 |
| 20260831054714 | 14 | 123 | 3.2 | 20.9 | 0.00 | 0.79 | 0.79 | 79 | 1019.5 |
| 20260831054223 | 15 | 52 | 1.6 | 17.7 | 0.00 | 0.79 | 0.79 | 80 | 1019.4 |
| 20260831053712 | 15 | 348 | 1.6 | 17.7 | 0.00 | 0.79 | 0.79 | 80 | 1019.3 |
| 20260831053214 | 15 | 122 | 3.2 | 11.3 | 0.00 | 0.79 | 0.79 | 81 | 1019.5 |
| 20260831052717 | 15 | 148 | 1.6 | 11.3 | 0.00 | 0.79 | 0.79 | 82 | 1019.3 |
| 20260831052229 | 14 | 71 | 3.2 | 25.7 | 0.00 | 0.79 | 0.79 | 84 | 1019.3 |
| 20260831051716 | 15 | 113 | 6.4 | 25.7 | 0.00 | 0.79 | 0.79 | 84 | 1019.2 |
| 20260831051218 | 15 | 107 | 6.4 | 20.9 | 0.00 | 0.79 | 0.79 | 85 | 1019.4 |
| 20260831050722 | 15 | 119 | 6.4 | 20.9 | 0.00 | 0.79 | 0.79 | 84 | 1019.3 |
| 20260831045724 | 15 | 150 | 6.4 | 16.1 | 0.00 | 0.79 | 0.79 | 84 | 1019.2 |
| 20260831045215 | 15 | 92 | 4.8 | 14.5 | 0.00 | 0.79 | 0.79 | 85 | 1019.1 |
| 20260831044727 | 15 | 167 | 4.8 | 14.5 | 0.00 | 0.79 | 0.79 | 85 | 1019.1 |
| 20260831044218 | 15 | 142 | 4.8 | 14.5 | 0.00 | 0.79 | 0.79 | 86 | 1019.0 |
| 20260831043719 | 15 | 136 | 3.2 | 14.5 | 0.00 | 0.79 | 0.79 | 86 | 1019.0 |
| 20260831043215 | 15 | 173 | 3.2 | 14.5 | 0.00 | 0.79 | 0.79 | 86 | 1019.0 |
| 20260831042733 | 15 | 119 | 3.2 | 14.5 | 0.00 | 0.79 | 0.79 | 86 | 1018.8 |
| 20260831042222 | 15 | 132 | 3.2 | 4.8 | 0.00 | 0.79 | 0.79 | 86 | 1018.8 |
| 20260831041706 | 15 | 124 | 1.6 | 4.8 | 0.00 | 0.79 | 0.79 | 85 | 1018.8 |
| 20260831041223 | 15 | 180 | 0.0 | 9.7 | 0.00 | 0.79 | 0.79 | 85 | 1018.7 |
| 20260831040220 | 15 | 142 | 0.0 | 16.1 | 0.00 | 0.79 | 0.79 | 85 | 1018.7 |
| 20260831035727 | 15 | 178 | 1.6 | 16.1 | 0.00 | 0.79 | 0.79 | 86 | 1018.6 |
| 20260831035226 | 15 | 69 | 3.2 | 17.7 | 0.00 | 0.79 | 0.79 | 86 | 1018.6 |
| 20260831034720 | 15 | 345 | 3.2 | 17.7 | 0.00 | 0.79 | 0.79 | 86 | 1018.7 |
| 20260831034230 | 15 | 75 | 3.2 | 19.3 | 0.00 | 0.79 | 0.79 | 86 | 1018.7 |
| 20260831033711 | 15 | 319 | 3.2 | 19.3 | 0.00 | 0.79 | 0.79 | 86 | 1018.7 |
| 20260831033230 | 15 | 96 | 3.2 | 25.7 | 0.00 | 0.79 | 0.79 | 86 | 1018.6 |
| 20260831032712 | 15 | 99 | 4.8 | 25.7 | 0.00 | 0.79 | 0.79 | 86 | 1018.7 |
| 20260831032214 | 15 | 73 | 4.8 | 25.7 | 0.00 | 0.79 | 0.79 | 87 | 1018.8 |
| 20260831031723 | 15 | 41 | 6.4 | 25.7 | 0.00 | 0.79 | 0.79 | 87 | 1018.7 |
| 20260831031216 | 15 | 173 | 6.4 | 19.3 | 0.00 | 0.79 | 0.79 | 87 | 1019.0 |
| 20260831030720 | 15 | 328 | 1.6 | 19.3 | 0.00 | 0.79 | 0.79 | 87 | 1018.8 |
| 20260831030227 | 15 | 140 | 3.2 | 20.9 | 0.00 | 0.79 | 0.79 | 88 | 1018.7 |
| 20260831025717 | 15 | 109 | 3.2 | 20.9 | 0.00 | 0.79 | 0.79 | 89 | 1018.6 |
| 20260831024722 | 15 | 76 | 3.2 | 16.1 | 0.00 | 0.79 | 0.79 | 90 | 1018.6 |
| 20260831024216 | 15 | 117 | 3.2 | 14.5 | 0.00 | 0.79 | 0.79 | 91 | 1018.6 |
| 20260831023714 | 15 | 78 | 4.8 | 14.5 | 0.00 | 0.79 | 0.79 | 92 | 1018.5 |
| 20260831023224 | 15 | 112 | 6.4 | 14.5 | 0.00 | 0.79 | 0.79 | 91 | 1018.3 |
| 20260831022729 | 15 | 136 | 4.8 | 14.5 | 0.00 | 0.79 | 0.79 | 92 | 1018.4 |
| 20260831022223 | 15 | 97 | 4.8 | 12.9 | 0.00 | 0.79 | 0.79 | 92 | 1018.3 |
| 20260831021726 | 15 | 157 | 4.8 | 12.9 | 0.00 | 0.79 | 0.79 | 92 | 1018.3 |
| 20260831021220 | 15 | 140 | 3.2 | 12.9 | 0.00 | 0.79 | 0.79 | 91 | 1018.2 |
| 20260831020719 | 15 | 145 | 1.6 | 12.9 | 0.00 | 0.79 | 0.79 | 91 | 1018.2 |
| 20260831020215 | 15 | 126 | 1.6 | 9.7 | 0.00 | 0.79 | 0.79 | 91 | 1018.2 |
| 20260831015724 | 15 | 159 | 1.6 | 9.7 | 0.00 | 0.79 | 0.79 | 91 | 1018.2 |
| 20260831015220 | 15 | 99 | 0.0 | 9.7 | 0.00 | 0.79 | 0.79 | 91 | 1018.2 |
| 20260831014710 | 15 | 148 | 1.6 | 9.7 | 0.00 | 0.79 | 0.79 | 91 | 1018.1 |
| 20260831014213 | 15 | 144 | 1.6 | 16.1 | 0.00 | 0.81 | 0.79 | 91 | 1018.2 |
| 20260831013718 | 15 | 87 | 4.8 | 16.1 | 0.00 | 0.81 | 0.79 | 91 | 1018.2 |
| 20260831013218 | 15 | 145 | 6.4 | 14.5 | 0.00 | 0.81 | 0.79 | 91 | 1018.2 |
| 20260831012729 | 15 | 106 | 6.4 | 14.5 | 0.00 | 0.81 | 0.79 | 91 | 1018.4 |
| 20260831012222 | 14 | 133 | 4.8 | 14.5 | 0.00 | 0.81 | 0.79 | 90 | 1018.3 |
| 20260831011719 | 14 | 153 | 4.8 | 14.5 | 0.00 | 0.81 | 0.79 | 90 | 1018.4 |
| 20260831011220 | 15 | 119 | 4.8 | 14.5 | 0.00 | 0.81 | 0.79 | 90 | 1018.3 |
| 20260831010729 | 14 | 117 | 3.2 | 14.5 | 0.00 | 0.81 | 0.79 | 89 | 1018.2 |
| 20260831010217 | 15 | 137 | 3.2 | 19.3 | 0.00 | 0.81 | 0.79 | 89 | 1018.2 |
| 20260831005217 | 15 | 162 | 6.4 | 17.7 | 0.00 | 0.81 | 0.79 | 89 | 1018.2 |
| 20260831004229 | 15 | 135 | 1.6 | 8.0 | 0.03 | 0.81 | 0.79 | 90 | 1018.2 |
| 20260831003716 | 15 | 84 | 0.0 | 8.0 | 0.03 | 0.81 | 0.79 | 90 | 1018.2 |
| 20260831003221 | 15 | 103 | 1.6 | 9.7 | 0.05 | 0.81 | 0.79 | 90 | 1018.3 |
| 20260831002713 | 15 | 93 | 1.6 | 9.7 | 0.13 | 0.81 | 0.79 | 90 | 1018.3 |
| 20260831001748 | 15 | 105 | 0.0 | 0.0 | 0.15 | 0.81 | 0.79 | 90 | 1018.5 |
| 20260831001221 | 15 | 110 | 0.0 | 8.0 | 0.15 | 0.81 | 0.79 | 90 | 1018.3 |
| 20260831000708 | 15 | 109 | 0.0 | 16.1 | 0.15 | 0.81 | 0.79 | 90 | 1018.4 |
| 20260831000211 | 15 | 165 | 1.6 | 16.1 | 0.18 | 0.81 | 0.79 | 90 | 1018.6 |
| 20260830235730 | 15 | 114 | 3.2 | 16.1 | 0.18 | 0.81 | 0.79 | 89 | 1018.7 |
| 20260830235230 | 15 | 188 | 3.2 | 29.0 | 0.15 | 0.79 | 0.79 | 89 | 1018.6 |
| 20260830234722 | 15 | 150 | 1.6 | 29.0 | 0.15 | 0.81 | 0.79 | 88 | 1018.7 |
| 20260830234221 | 15 | 10 | 4.8 | 29.0 | 0.15 | 0.81 | 0.79 | 87 | 1018.6 |
| 20260830233731 | 16 | 250 | 8.0 | 29.0 | 0.15 | 0.79 | 0.76 | 88 | 1018.6 |
| 20260830233226 | 16 | 18 | 6.4 | 30.6 | 0.23 | 0.79 | 0.71 | 89 | 1018.7 |
| 20260830232716 | 15 | 65 | 8.0 | 30.6 | 0.41 | 0.69 | 0.64 | 90 | 1018.6 |
| 20260830232216 | 16 | 338 | 8.0 | 12.9 | 0.64 | 0.69 | 0.64 | 90 | 1018.1 |
| 20260830231726 | 15 | 17 | 1.6 | 12.9 | 0.64 | 0.69 | 0.64 | 91 | 1018.3 |
| 20260830231219 | 16 | 338 | 0.0 | 0.0 | 0.64 | 0.69 | 0.64 | 90 | 1017.9 |
| 20260830230224 | 16 | 316 | 0.0 | 0.0 | 0.61 | 0.66 | 0.61 | 89 | 1017.7 |
| 20260830225720 | 16 | 144 | 0.0 | 0.0 | 0.61 | 0.66 | 0.61 | 89 | 1017.4 |
| 20260830225226 | 16 | 128 | 0.0 | 8.0 | 0.61 | 0.66 | 0.61 | 88 | 1017.8 |
| 20260830224718 | 16 | 141 | 0.0 | 8.0 | 0.61 | 0.66 | 0.61 | 88 | 1018.1 |
| 20260830224216 | 16 | 130 | 0.0 | 48.3 | 0.61 | 0.66 | 0.61 | 87 | 1018.1 |
| 20260830223719 | 16 | 163 | 1.6 | 48.3 | 0.61 | 0.61 | 0.56 | 86 | 1018.1 |
| 20260830223210 | 16 | 19 | 12.9 | 48.3 | 0.43 | 0.48 | 0.43 | 85 | 1018.4 |
| 20260830222223 | 16 | 68 | 1.6 | 0.0 | 0.00 | 0.05 | 0.00 | 79 | 1017.8 |
| 20260830221223 | 16 | 0 | 0.0 | 0.0 | 0.00 | 0.08 | 0.00 | 79 | 1016.8 |
| 20260830220722 | 16 | 51 | 0.0 | 0.0 | 0.00 | 0.08 | 0.00 | 78 | 1016.9 |
| 20260830220206 | 16 | 51 | 0.0 | 0.0 | 0.00 | 0.08 | 0.08 | 78 | 1017.0 |
| 20260830215222 | 16 | 51 | 0.0 | 0.0 | 0.00 | 0.08 | 0.08 | 78 | 1016.9 |
| 20260830214715 | 16 | 51 | 0.0 | 0.0 | 0.00 | 0.08 | 0.08 | 78 | 1016.9 |
| 20260830214212 | 16 | 51 | 0.0 | 0.0 | 0.00 | 0.08 | 0.08 | 78 | 1016.9 |
| 20260830213231 | 16 | 50 | 0.0 | 0.0 | 0.00 | 0.08 | 0.08 | 77 | 1017.1 |
| 20260830212722 | 16 | 50 | 0.0 | 0.0 | 0.00 | 0.08 | 0.08 | 77 | 1017.1 |
| 20260830212220 | 16 | 327 | 0.0 | 0.0 | 0.00 | 0.08 | 0.08 | 78 | 1017.2 |
| 20260830211727 | 16 | 355 | 0.0 | 0.0 | 0.00 | 0.08 | 0.08 | 78 | 1017.2 |
| 20260830211216 | 17 | 355 | 0.0 | 0.0 | 0.00 | 0.08 | 0.08 | 78 | 1017.3 |
| 20260830210726 | 17 | 355 | 0.0 | 0.0 | 0.00 | 0.08 | 0.08 | 77 | 1017.3 |
| 20260830210217 | 17 | 355 | 0.0 | 0.0 | 0.00 | 0.08 | 0.08 | 77 | 1017.3 |
| 20260830205727 | 17 | 355 | 0.0 | 0.0 | 0.00 | 0.08 | 0.08 | 77 | 1017.3 |
| 20260830205219 | 17 | 299 | 0.0 | 0.0 | 0.00 | 0.08 | 0.08 | 78 | 1017.3 |
| 20260830204717 | 17 | 299 | 0.0 | 0.0 | 0.00 | 0.08 | 0.08 | 77 | 1017.3 |
| 20260830204227 | 17 | 299 | 0.0 | 0.0 | 0.00 | 0.08 | 0.08 | 77 | 1017.3 |
| 20260830203714 | 17 | 299 | 0.0 | 0.0 | 0.00 | 0.08 | 0.08 | 77 | 1017.3 |
| 20260830203232 | 17 | 299 | 0.0 | 0.0 | 0.00 | 0.08 | 0.08 | 76 | 1017.4 |
| 20260830202725 | 17 | 299 | 0.0 | 0.0 | 0.00 | 0.08 | 0.08 | 76 | 1017.4 |
| 20260830201718 | 17 | 299 | 0.0 | 0.0 | 0.00 | 0.08 | 0.08 | 75 | 1017.4 |
| 20260830201227 | 17 | 299 | 0.0 | 0.0 | 0.00 | 0.08 | 0.08 | 75 | 1017.4 |
| 20260830200730 | 18 | 299 | 0.0 | 0.0 | 0.00 | 0.08 | 0.08 | 75 | 1017.4 |
| 20260830200221 | 18 | 299 | 0.0 | 0.0 | 0.00 | 0.08 | 0.08 | 75 | 1017.5 |
| 20260830195730 | 18 | 299 | 0.0 | 0.0 | 0.00 | 0.08 | 0.08 | 75 | 1017.5 |
| 20260830195216 | 18 | 299 | 0.0 | 0.0 | 0.00 | 0.08 | 0.08 | 75 | 1017.5 |
| 20260830194723 | 18 | 299 | 0.0 | 0.0 | 0.00 | 0.08 | 0.08 | 75 | 1017.5 |
| 20260830194212 | 18 | 49 | 0.0 | 0.0 | 0.00 | 0.08 | 0.08 | 75 | 1017.5 |
| 20260830193730 | 18 | 49 | 0.0 | 0.0 | 0.00 | 0.08 | 0.08 | 75 | 1017.5 |
| 20260830193228 | 18 | 49 | 0.0 | 0.0 | 0.00 | 0.08 | 0.08 | 75 | 1017.5 |
| 20260830192717 | 18 | 340 | 0.0 | 0.0 | 0.00 | 0.08 | 0.08 | 75 | 1017.5 |
| 20260830192214 | 18 | 340 | 0.0 | 0.0 | 0.00 | 0.08 | 0.08 | 74 | 1017.5 |
| 20260830191714 | 18 | 340 | 0.0 | 0.0 | 0.00 | 0.08 | 0.08 | 74 | 1017.5 |
| 20260830191227 | 18 | 340 | 0.0 | 0.0 | 0.00 | 0.08 | 0.08 | 74 | 1017.4 |
| 20260830190717 | 18 | 340 | 0.0 | 0.0 | 0.00 | 0.08 | 0.08 | 74 | 1017.4 |
| 20260830190220 | 18 | 340 | 0.0 | 0.0 | 0.00 | 0.08 | 0.08 | 73 | 1017.4 |
| 20260830185726 | 18 | 340 | 0.0 | 0.0 | 0.00 | 0.08 | 0.08 | 73 | 1017.3 |
| 20260830184727 | 19 | 340 | 0.0 | 0.0 | 0.00 | 0.08 | 0.08 | 73 | 1017.2 |
| 20260830184229 | 19 | 340 | 0.0 | 0.0 | 0.00 | 0.08 | 0.08 | 73 | 1017.2 |
| 20260830183727 | 19 | 340 | 0.0 | 0.0 | 0.00 | 0.08 | 0.08 | 73 | 1017.2 |
| 20260830183221 | 19 | 340 | 0.0 | 0.0 | 0.00 | 0.08 | 0.08 | 72 | 1017.1 |
| 20260830181718 | 20 | 342 | 0.0 | 0.0 | 0.00 | 0.08 | 0.08 | 70 | 1017.1 |
| 20260830181243 | 20 | 329 | 0.0 | 0.0 | 0.00 | 0.08 | 0.08 | 70 | 1017.2 |
| 20260830180721 | 20 | 11 | 0.0 | 0.0 | 0.00 | 0.08 | 0.08 | 68 | 1017.2 |
| 20260830180247 | 20 | 11 | 0.0 | 0.0 | 0.00 | 0.08 | 0.08 | 68 | 1017.4 |
| 20260830174724 | 20 | 321 | 0.0 | 0.0 | 0.00 | 0.08 | 0.08 | 66 | 1017.3 |
| 20260830174207 | 21 | 0 | 0.0 | 0.0 | 0.00 | 0.08 | 0.08 | 65 | 1017.3 |
| 20260830173716 | 21 | 329 | 0.0 | 0.0 | 0.00 | 0.08 | 0.08 | 64 | 1017.3 |
| 20260830173224 | 21 | 334 | 0.0 | 0.0 | 0.00 | 0.08 | 0.08 | 63 | 1017.3 |
| 20260830172718 | 21 | 305 | 0.0 | 0.0 | 0.00 | 0.08 | 0.08 | 63 | 1017.3 |
| 20260830172226 | 21 | 309 | 0.0 | 0.0 | 0.00 | 0.08 | 0.08 | 62 | 1017.3 |
| 20260830171720 | 21 | 54 | 0.0 | 0.0 | 0.00 | 0.08 | 0.08 | 59 | 1017.3 |
| 20260830171231 | 22 | 335 | 0.0 | 0.0 | 0.00 | 0.08 | 0.08 | 61 | 1017.4 |
| 20260830170214 | 22 | 122 | 0.0 | 0.0 | 0.00 | 0.08 | 0.08 | 57 | 1017.3 |
| 20260830165719 | 22 | 336 | 0.0 | 0.0 | 0.00 | 0.08 | 0.08 | 59 | 1017.3 |
| 20260830165229 | 23 | 355 | 0.0 | 12.9 | 0.00 | 0.08 | 0.08 | 55 | 1017.3 |
| 20260830164720 | 23 | 84 | 0.0 | 12.9 | 0.00 | 0.08 | 0.08 | 56 | 1017.3 |
| 20260830164214 | 23 | 335 | 1.6 | 16.1 | 0.00 | 0.08 | 0.08 | 52 | 1017.3 |
| 20260830163223 | 24 | 330 | 3.2 | 16.1 | 0.00 | 0.08 | 0.08 | 52 | 1017.3 |
| 20260830162722 | 24 | 345 | 3.2 | 16.1 | 0.00 | 0.08 | 0.08 | 52 | 1017.2 |
| 20260830162223 | 23 | 306 | 1.6 | 14.5 | 0.00 | 0.08 | 0.08 | 53 | 1017.3 |
| 20260830161719 | 23 | 26 | 1.6 | 16.1 | 0.00 | 0.08 | 0.08 | 54 | 1017.2 |
| 20260830161218 | 23 | 350 | 4.8 | 20.9 | 0.00 | 0.08 | 0.08 | 54 | 1017.2 |
| 20260830160713 | 23 | 23 | 4.8 | 20.9 | 0.00 | 0.08 | 0.08 | 52 | 1017.3 |
| 20260830155720 | 24 | 355 | 4.8 | 19.3 | 0.00 | 0.08 | 0.08 | 51 | 1017.3 |
| 20260830154714 | 24 | 10 | 6.4 | 19.3 | 0.00 | 0.08 | 0.08 | 52 | 1017.3 |
| 20260830154223 | 24 | 348 | 6.4 | 24.1 | 0.00 | 0.08 | 0.08 | 53 | 1017.4 |
| 20260830153716 | 24 | 318 | 6.4 | 24.1 | 0.00 | 0.08 | 0.08 | 53 | 1017.4 |
| 20260830153214 | 24 | 47 | 11.3 | 24.1 | 0.00 | 0.08 | 0.08 | 52 | 1017.5 |
| 20260830152759 | 24 | 333 | 11.3 | 24.1 | 0.00 | 0.08 | 0.08 | 52 | 1017.5 |
| 20260830152212 | 24 | 321 | 6.4 | 25.7 | 0.00 | 0.08 | 0.08 | 51 | 1017.5 |